NSZ2101 EPMO-EVRA

Flight info

Callsign NSZ2101
Flight time 1h 3m
Altitude 30000
Route BAMSO Z182 ASLUX Z460 XESNA M857 UNPEG DCT BOKSU DCT GUNTA
Aircraft B737/M-SDE2E3FGHIRWXY/LB1

Departure

Time 2026-05-05 13:16
Airport Warsaw Modlin Airport (EPMO)

Arrival

Time 2026-05-05 14:19
Airport Riga International Airport (EVRA)
Time Latitude Longitude Altitude Speed Heading
2026-05-05 12:43 52.44740 20.65182 352 ft 0 kts 202°
2026-05-05 13:05 52.44752 20.65188 357 ft 2 kts 194°
2026-05-05 13:05 52.44766 20.65190 350 ft 2 kts 167°
2026-05-05 13:05 52.44779 20.65175 359 ft 2 kts 107°
2026-05-05 13:05 52.44780 20.65161 353 ft 0 kts 84°
2026-05-05 13:09 52.44780 20.65162 353 ft 2 kts 84°
2026-05-05 13:09 52.44788 20.65240 352 ft 9 kts 81°
2026-05-05 13:10 52.44800 20.65372 348 ft 15 kts 80°
2026-05-05 13:10 52.44821 20.65586 348 ft 23 kts 82°
2026-05-05 13:10 52.44845 20.65859 351 ft 21 kts 81°
2026-05-05 13:10 52.44866 20.66075 356 ft 19 kts 83°
2026-05-05 13:11 52.44890 20.66333 348 ft 25 kts 82°
2026-05-05 13:11 52.44915 20.66610 348 ft 24 kts 82°
2026-05-05 13:11 52.44940 20.66870 355 ft 23 kts 82°
2026-05-05 13:11 52.44969 20.67057 351 ft 14 kts 42°
2026-05-05 13:12 52.45059 20.67062 357 ft 13 kts 352°
2026-05-05 13:12 52.45147 20.67039 350 ft 13 kts 351°
2026-05-05 13:12 52.45193 20.67023 354 ft 0 kts 345°
2026-05-05 13:13 52.45226 20.67003 351 ft 12 kts 339°
2026-05-05 13:13 52.45278 20.66884 353 ft 11 kts 265°
2026-05-05 13:14 52.45277 20.66871 351 ft 0 kts 262°
2026-05-05 13:15 52.45266 20.66740 350 ft 39 kts 263°
2026-05-05 13:16 52.45179 20.65809 354 ft 123 kts 262°
2026-05-05 13:16 52.45006 20.64085 561 ft 170 kts 260°
2026-05-05 13:16 52.44787 20.62012 902 ft 204 kts 261°
2026-05-05 13:16 52.44548 20.59720 1593 ft 197 kts 260°
2026-05-05 13:17 52.44318 20.57560 2460 ft 193 kts 261°
2026-05-05 13:17 52.44390 20.55319 3099 ft 204 kts 292°
2026-05-05 13:17 52.45202 20.53417 3857 ft 208 kts 314°
2026-05-05 13:17 52.46004 20.52452 4079 ft 228 kts 338°
2026-05-05 13:18 52.48252 20.52026 4577 ft 262 kts 358°
2026-05-05 13:18 52.50102 20.51952 5375 ft 268 kts 357°
2026-05-05 13:18 52.52012 20.51840 5798 ft 278 kts 356°
2026-05-05 13:18 52.53287 20.51745 5941 ft 275 kts 356°
2026-05-05 13:19 52.55192 20.51586 6081 ft 273 kts 356°
2026-05-05 13:19 52.57090 20.51422 6169 ft 273 kts 358°
2026-05-05 13:19 52.58925 20.52101 6232 ft 275 kts 31°
2026-05-05 13:19 52.60248 20.54335 6293 ft 276 kts 58°
2026-05-05 13:20 52.61116 20.57191 6779 ft 282 kts 70°
2026-05-05 13:20 52.61548 20.60338 7707 ft 282 kts 81°
2026-05-05 13:20 52.61825 20.63545 8565 ft 285 kts 82°
2026-05-05 13:20 52.62099 20.66794 9349 ft 289 kts 82°
2026-05-05 13:21 52.62386 20.70079 9815 ft 291 kts 82°
2026-05-05 13:21 52.62683 20.73401 10007 ft 296 kts 81°
2026-05-05 13:21 52.62930 20.76786 10236 ft 300 kts 85°
2026-05-05 13:21 52.63073 20.80291 10632 ft 319 kts 86°
2026-05-05 13:22 52.63207 20.84069 10913 ft 339 kts 86°
2026-05-05 13:22 52.63353 20.87997 11549 ft 347 kts 86°
2026-05-05 13:22 52.63509 20.91968 12317 ft 349 kts 86°
2026-05-05 13:22 52.63597 20.95985 13060 ft 353 kts 95°
2026-05-05 13:23 52.62940 20.99822 13738 ft 357 kts 118°
2026-05-05 13:23 52.61445 21.03058 14461 ft 358 kts 139°
2026-05-05 13:23 52.59421 21.05461 15171 ft 361 kts 147°
2026-05-05 13:23 52.57290 21.07705 15813 ft 365 kts 148°
2026-05-05 13:24 52.55130 21.09940 16467 ft 369 kts 148°
2026-05-05 13:24 52.52947 21.12214 17122 ft 373 kts 148°
2026-05-05 13:24 52.50751 21.14526 17764 ft 376 kts 148°
2026-05-05 13:24 52.48538 21.16875 18384 ft 380 kts 147°
2026-05-05 13:25 52.46310 21.19249 18987 ft 383 kts 147°
2026-05-05 13:25 52.44087 21.21619 19570 ft 387 kts 147°
2026-05-05 13:25 52.41820 21.24031 20152 ft 390 kts 147°
2026-05-05 13:25 52.39928 21.26451 20612 ft 395 kts 133°
2026-05-05 13:26 52.38403 21.30195 21162 ft 398 kts 114°
2026-05-05 13:26 52.37703 21.34289 21691 ft 400 kts 98°
2026-05-05 13:26 52.37391 21.38452 22200 ft 403 kts 96°
2026-05-05 13:26 52.37093 21.43012 22664 ft 407 kts 96°
2026-05-05 13:27 52.36811 21.47395 23104 ft 411 kts 96°
2026-05-05 13:27 52.36530 21.51611 23548 ft 413 kts 96°
2026-05-05 13:27 52.36207 21.56242 24023 ft 416 kts 97°
2026-05-05 13:27 52.35867 21.60954 24481 ft 419 kts 97°
2026-05-05 13:28 52.35516 21.65699 24922 ft 422 kts 97°
2026-05-05 13:28 52.35158 21.70478 25346 ft 425 kts 97°
2026-05-05 13:28 52.34795 21.75295 25777 ft 428 kts 97°
2026-05-05 13:28 52.34424 21.80199 26194 ft 430 kts 97°
2026-05-05 13:29 52.34054 21.85069 26584 ft 433 kts 97°
2026-05-05 13:29 52.33684 21.89905 26970 ft 436 kts 97°
2026-05-05 13:29 52.33339 21.94838 27350 ft 438 kts 96°
2026-05-05 13:29 52.33054 21.99807 27715 ft 440 kts 95°
2026-05-05 13:30 52.32782 22.04660 28056 ft 443 kts 95°
2026-05-05 13:30 52.32606 22.09694 28367 ft 446 kts 85°
2026-05-05 13:30 52.33270 22.14647 28658 ft 448 kts 67°
2026-05-05 13:30 52.34778 22.19105 29020 ft 449 kts 52°
2026-05-05 13:31 52.36987 22.22704 29348 ft 449 kts 38°
2026-05-05 13:31 52.39478 22.25809 29731 ft 449 kts 35°
2026-05-05 13:31 52.42148 22.28473 30013 ft 450 kts 26°
2026-05-05 13:31 52.45043 22.30482 29982 ft 452 kts 18°
2026-05-05 13:32 52.51117 22.32799 29994 ft 447 kts 11°
2026-05-05 13:32 52.57172 22.34816 30003 ft 447 kts 11°
2026-05-05 13:33 52.63268 22.36941 30005 ft 447 kts 12°
2026-05-05 13:33 52.69354 22.39119 30001 ft 447 kts 12°
2026-05-05 13:34 52.75435 22.41301 30003 ft 447 kts 12°
2026-05-05 13:34 52.81484 22.43477 30000 ft 448 kts 12°
2026-05-05 13:35 52.87587 22.45682 30001 ft 448 kts 12°
2026-05-05 13:35 52.93680 22.47890 30002 ft 448 kts 12°
2026-05-05 13:36 52.99772 22.50104 30000 ft 448 kts 12°
2026-05-05 13:36 53.05687 22.52260 29998 ft 448 kts 12°
2026-05-05 13:37 53.11780 22.54487 30001 ft 448 kts 12°
2026-05-05 13:37 53.17871 22.56720 30001 ft 447 kts 12°
2026-05-05 13:38 53.23952 22.58955 30002 ft 447 kts 12°
2026-05-05 13:38 53.29977 22.61317 29998 ft 447 kts 14°
2026-05-05 13:39 53.35991 22.63950 30000 ft 447 kts 14°
2026-05-05 13:39 53.42015 22.66608 30009 ft 447 kts 14°
2026-05-05 13:40 53.48036 22.69238 29999 ft 447 kts 14°
2026-05-05 13:40 53.54019 22.71841 29999 ft 447 kts 14°
2026-05-05 13:41 53.60061 22.74473 30002 ft 447 kts 14°
2026-05-05 13:41 53.66093 22.77109 30001 ft 447 kts 14°
2026-05-05 13:42 53.72118 22.79750 29997 ft 447 kts 14°
2026-05-05 13:42 53.78148 22.82402 30007 ft 447 kts 14°
2026-05-05 13:43 53.84134 22.85042 30000 ft 447 kts 14°
2026-05-05 13:43 53.90167 22.87711 30000 ft 447 kts 14°
2026-05-05 13:44 53.96192 22.90385 30000 ft 447 kts 14°
2026-05-05 13:44 54.02223 22.93069 29999 ft 447 kts 14°
2026-05-05 13:45 54.08244 22.95757 30002 ft 447 kts 14°
2026-05-05 13:45 54.14264 22.98452 29999 ft 447 kts 14°
2026-05-05 13:46 54.20257 23.01144 30002 ft 447 kts 14°
2026-05-05 13:46 54.26286 23.03859 30003 ft 447 kts 14°
2026-05-05 13:47 54.32315 23.06501 29916 ft 441 kts 12°
2026-05-05 13:47 54.35291 23.07548 29720 ft 432 kts 10°
2026-05-05 13:47 54.38248 23.08475 29834 ft 434 kts
2026-05-05 13:48 54.44161 23.10270 29350 ft 431 kts
2026-05-05 13:48 54.47123 23.11185 28594 ft 434 kts
2026-05-05 13:48 54.50112 23.12126 27783 ft 437 kts 10°
2026-05-05 13:49 54.53039 23.13062 27949 ft 418 kts 10°
2026-05-05 13:49 54.55909 23.13986 27174 ft 423 kts 10°
2026-05-05 13:49 54.58829 23.14932 26183 ft 431 kts 10°
2026-05-05 13:49 54.61822 23.15903 25072 ft 441 kts 10°
2026-05-05 13:50 54.64841 23.16886 24372 ft 440 kts 10°
2026-05-05 13:50 54.67834 23.17863 23756 ft 437 kts 10°
2026-05-05 13:50 54.70767 23.18822 23217 ft 432 kts 10°
2026-05-05 13:50 54.73707 23.19784 22713 ft 427 kts 10°
2026-05-05 13:51 54.76595 23.20730 22185 ft 415 kts 10°
2026-05-05 13:51 54.79389 23.21647 21675 ft 401 kts 10°
2026-05-05 13:51 54.82101 23.22538 21171 ft 395 kts 10°
2026-05-05 13:51 54.84791 23.23422 20685 ft 393 kts 10°
2026-05-05 13:52 54.87473 23.24304 20188 ft 390 kts 10°
2026-05-05 13:52 54.90141 23.25184 19698 ft 388 kts 10°
2026-05-05 13:52 54.92783 23.26055 19272 ft 384 kts 10°
2026-05-05 13:52 54.95391 23.26917 18917 ft 378 kts 10°
2026-05-05 13:53 54.97919 23.27754 18580 ft 371 kts 10°
2026-05-05 13:53 55.00429 23.28586 18267 ft 363 kts 10°
2026-05-05 13:53 55.02900 23.29406 17964 ft 359 kts 10°
2026-05-05 13:53 55.05348 23.30219 17670 ft 356 kts 10°
2026-05-05 13:54 55.07775 23.31026 17434 ft 353 kts 10°
2026-05-05 13:54 55.10169 23.31824 17156 ft 347 kts 10°
2026-05-05 13:54 55.12543 23.32615 16912 ft 344 kts 10°
2026-05-05 13:54 55.14878 23.33394 16654 ft 338 kts 10°
2026-05-05 13:55 55.17169 23.34160 16421 ft 331 kts 10°
2026-05-05 13:55 55.19385 23.34902 16190 ft 327 kts 10°
2026-05-05 13:55 55.21634 23.35655 15964 ft 324 kts 10°
2026-05-05 13:55 55.23817 23.36387 15740 ft 322 kts 10°
2026-05-05 13:56 55.26016 23.37125 15519 ft 322 kts 10°
2026-05-05 13:56 55.28214 23.37863 15302 ft 323 kts 10°
2026-05-05 13:56 55.30434 23.38610 15084 ft 325 kts 10°
2026-05-05 13:56 55.32656 23.39358 14863 ft 326 kts 10°
2026-05-05 13:57 55.34881 23.40109 14638 ft 326 kts 10°
2026-05-05 13:57 55.37108 23.40861 14426 ft 325 kts 10°
2026-05-05 13:57 55.39331 23.41612 14253 ft 323 kts 10°
2026-05-05 13:57 55.41538 23.42359 14085 ft 321 kts 10°
2026-05-05 13:58 55.43694 23.43090 13961 ft 318 kts 10°
2026-05-05 13:58 55.45860 23.43825 13815 ft 316 kts 10°
2026-05-05 13:58 55.48008 23.44554 13706 ft 313 kts 10°
2026-05-05 13:58 55.50143 23.45280 13580 ft 312 kts 10°
2026-05-05 13:59 55.54440 23.46743 13316 ft 317 kts 10°
2026-05-05 13:59 55.56616 23.47485 13168 ft 318 kts 10°
2026-05-05 14:00 55.60922 23.48956 12866 ft 316 kts 10°
2026-05-05 14:00 55.62384 23.49456 12764 ft 316 kts 10°
2026-05-05 14:00 55.65234 23.50433 12565 ft 315 kts 10°
2026-05-05 14:00 55.67388 23.51171 12418 ft 314 kts 10°
2026-05-05 14:01 55.69534 23.51908 12265 ft 314 kts 10°
2026-05-05 14:01 55.71678 23.52645 12115 ft 313 kts 10°
2026-05-05 14:01 55.73820 23.53382 11965 ft 313 kts 10°
2026-05-05 14:01 55.75952 23.54117 11815 ft 312 kts 10°
2026-05-05 14:02 55.78083 23.54852 11663 ft 311 kts 10°
2026-05-05 14:02 55.80183 23.55577 11516 ft 311 kts 10°
2026-05-05 14:02 55.82307 23.56312 11366 ft 310 kts 10°
2026-05-05 14:02 55.84430 23.57046 11184 ft 314 kts 10°
2026-05-05 14:03 55.86654 23.57816 11026 ft 329 kts 10°
2026-05-05 14:03 55.88867 23.58583 10959 ft 317 kts 10°
2026-05-05 14:03 55.90968 23.59315 10821 ft 298 kts 10°
2026-05-05 14:03 55.92953 23.60006 10718 ft 283 kts 10°
2026-05-05 14:04 55.94863 23.60671 10648 ft 279 kts 10°
2026-05-05 14:04 55.96749 23.61328 10582 ft 280 kts 10°
2026-05-05 14:04 55.98661 23.61994 10529 ft 280 kts 10°
2026-05-05 14:04 56.00572 23.62660 10461 ft 280 kts 10°
2026-05-05 14:05 56.02492 23.63331 10392 ft 281 kts 10°
2026-05-05 14:05 56.04415 23.64003 10319 ft 281 kts 10°
2026-05-05 14:05 56.06338 23.64676 10247 ft 282 kts 10°
2026-05-05 14:05 56.08265 23.65351 10174 ft 282 kts 10°
2026-05-05 14:06 56.10194 23.66028 10101 ft 282 kts 10°
2026-05-05 14:06 56.12119 23.66704 10027 ft 282 kts 10°
2026-05-05 14:06 56.14020 23.67373 9942 ft 279 kts 10°
2026-05-05 14:06 56.15926 23.68043 9866 ft 278 kts 10°
2026-05-05 14:07 56.17829 23.68714 9797 ft 279 kts 10°
2026-05-05 14:07 56.19735 23.69386 9736 ft 278 kts 10°
2026-05-05 14:07 56.21635 23.70057 9669 ft 279 kts 10°
2026-05-05 14:07 56.23538 23.70729 9551 ft 278 kts 10°
2026-05-05 14:08 56.25431 23.71398 9506 ft 275 kts 10°
2026-05-05 14:08 56.27299 23.72060 9505 ft 273 kts 10°
2026-05-05 14:08 56.29142 23.72713 9505 ft 274 kts 10°
2026-05-05 14:08 56.30999 23.73372 9492 ft 268 kts 10°
2026-05-05 14:09 56.32802 23.74012 9483 ft 259 kts 10°
2026-05-05 14:09 56.34543 23.74632 9488 ft 253 kts 10°
2026-05-05 14:09 56.36262 23.75243 9479 ft 252 kts 10°
2026-05-05 14:09 56.38019 23.75934 8867 ft 266 kts 14°
2026-05-05 14:10 56.39207 23.76523 8545 ft 266 kts 15°
2026-05-05 14:10 56.40984 23.77453 8048 ft 266 kts 15°
2026-05-05 14:10 56.42759 23.78388 7559 ft 266 kts 15°
2026-05-05 14:10 56.44536 23.79317 7094 ft 264 kts 15°
2026-05-05 14:11 56.46291 23.80227 6706 ft 260 kts 15°
2026-05-05 14:11 56.48019 23.81118 6326 ft 256 kts 15°
2026-05-05 14:11 56.49716 23.81991 6024 ft 248 kts 15°
2026-05-05 14:11 56.51341 23.82827 6009 ft 239 kts 15°
2026-05-05 14:12 56.52908 23.83633 5976 ft 234 kts 15°
2026-05-05 14:12 56.54457 23.84447 5798 ft 232 kts 15°
2026-05-05 14:12 56.56014 23.85272 5458 ft 231 kts 15°
2026-05-05 14:12 56.57545 23.86084 5132 ft 228 kts 15°
2026-05-05 14:13 56.59059 23.86887 4800 ft 225 kts 15°
2026-05-05 14:13 56.60558 23.87683 4482 ft 224 kts 15°
2026-05-05 14:13 56.62044 23.88473 4229 ft 223 kts 15°
2026-05-05 14:13 56.63530 23.89263 3895 ft 222 kts 15°
2026-05-05 14:14 56.65006 23.90048 3562 ft 219 kts 15°
2026-05-05 14:14 56.66438 23.90810 3232 ft 216 kts 15°
2026-05-05 14:14 56.67887 23.91582 2910 ft 217 kts 15°
2026-05-05 14:14 56.69345 23.92359 2681 ft 220 kts 15°
2026-05-05 14:15 56.70821 23.93146 2662 ft 221 kts 15°
2026-05-05 14:15 56.72294 23.93876 2638 ft 218 kts
2026-05-05 14:15 56.73803 23.94181 2647 ft 219 kts
2026-05-05 14:15 56.75305 23.94382 2626 ft 210 kts
2026-05-05 14:16 56.76693 23.94582 2504 ft 192 kts
2026-05-05 14:16 56.77968 23.94778 2357 ft 176 kts
2026-05-05 14:16 56.79173 23.94961 2228 ft 174 kts
2026-05-05 14:16 56.80368 23.95140 2046 ft 169 kts
2026-05-05 14:17 56.81519 23.95326 1826 ft 163 kts
2026-05-05 14:17 56.82636 23.95511 1626 ft 159 kts
2026-05-05 14:17 56.83747 23.95694 1456 ft 159 kts
2026-05-05 14:17 56.84820 23.95872 1198 ft 150 kts
2026-05-05 14:18 56.85815 23.96037 991 ft 138 kts
2026-05-05 14:18 56.86773 23.96195 837 ft 139 kts
2026-05-05 14:18 56.87728 23.96353 644 ft 141 kts
2026-05-05 14:18 56.88651 23.96506 464 ft 139 kts
2026-05-05 14:19 56.89609 23.96664 297 ft 137 kts
2026-05-05 14:19 56.90561 23.96821 111 ft 138 kts
2026-05-05 14:19 56.91408 23.96955 45 ft 67 kts
2026-05-05 14:19 56.91623 23.96986 44 ft 17 kts
2026-05-05 14:20 56.91715 23.97059 41 ft 13 kts 65°
2026-05-05 14:20 56.91719 23.97156 43 ft 0 kts 94°
2026-05-05 14:20 56.91719 23.97167 43 ft 2 kts 98°
2026-05-05 14:20 56.91717 23.97207 43 ft 5 kts 93°
2026-05-05 14:21 56.91714 23.97268 43 ft 1 kts 96°
2026-05-05 14:21 56.91712 23.97299 43 ft 4 kts 96°
2026-05-05 14:21 56.91710 23.97357 43 ft 4 kts 89°
2026-05-05 14:21 56.91746 23.97406 43 ft 14 kts
2026-05-05 14:22 56.91851 23.97422 43 ft 14 kts
2026-05-05 14:22 56.91960 23.97438 43 ft 16 kts
2026-05-05 14:22 56.92074 23.97452 43 ft 17 kts
2026-05-05 14:22 56.92124 23.97457 43 ft 0 kts 359°
2026-05-05 14:23 56.92147 23.97463 43 ft 10 kts
2026-05-05 14:23 56.92232 23.97477 42 ft 12 kts
2026-05-05 14:23 56.92309 23.97498 42 ft 13 kts 23°
2026-05-05 14:23 56.92342 23.97621 42 ft 11 kts 91°
2026-05-05 14:24 56.92339 23.97694 40 ft 5 kts 95°
2026-05-05 14:24 56.92336 23.97742 42 ft 1 kts 97°
2026-05-05 14:24 56.92333 23.97756 42 ft 0 kts 110°
2026-05-05 14:24 56.92333 23.97757 42 ft 0 kts 113°
2026-05-05 14:25 56.92330 23.97761 42 ft 1 kts 130°
2026-05-05 14:25 56.92318 23.97764 41 ft 4 kts 187°
2026-05-05 14:25 56.92292 23.97750 42 ft 5 kts 186°
2026-05-05 14:25 56.92282 23.97748 42 ft 0 kts 185°